Location: Putah Creek Observatory
(38.7021°N, 122.3865°W)
Time: 04:04:30
(UTC-07:00)

Hubble Space Telescope - Visible Passes

Search period start: 23 March 2019 00:00
Search period end: 02 April 2019 00:00
Orbit: 537 x 540 km, 28.5° (Epoch: 22 March)

Date Brightness Start Highest point End Pass type
(mag) Time Alt. Az. Time Alt. Az. Time Alt. Az.
24 Mar 3.1 21:13:17 10° SSW 21:14:11 13° SSW 21:14:11 13° SSW visible
25 Mar 2.7 21:02:28 10° SSW 21:04:32 16° S 21:04:32 16° S visible
26 Mar 2.5 20:51:43 10° SW 20:54:34 18° S 20:54:49 18° SSE visible
27 Mar 2.5 20:41:01 10° SW 20:43:58 19° S 20:45:02 17° SSE visible
28 Mar 2.5 20:30:23 10° SW 20:33:23 20° S 20:35:13 15° SE visible
29 Mar 2.6 20:19:47 10° SW 20:22:49 20° S 20:25:23 12° SE visible
30 Mar 2.6 20:09:14 10° SW 20:12:13 19° S 20:15:13 10° SE visible
31 Mar 2.7 19:58:43 10° SW 20:01:38 19° S 20:04:33 10° SE visible
